Погода в Житомире

Погода в Житомире : погода сейчас, прогноз погоды и архив. Всё, что Вы хотите узнать о погоде в Житомире!

Хотите узнать прогноз погоды в Житомире? Тогда Вам сюда: Погода в Житомире

Поиск расширенной информации на нашем сайте:

Другие новости

Новости СМИ2

Главная страница сайта

Новости сайта

03.07.2017

Напоминаем, что на нашем специализированном сайте Метеоцентр.Азия вы можете получить высокодетализированные автоматические прогнозы погоды по пунктам России, СНГ и мира в авиационном формате (включающие направление и скорость ветра, видимость, явления погоды, количество и форму облачности, нижнюю и верхнюю границу облачности).


Погода в Житомире - сегодня

Время (UTC), дата Ветер
(°,м/с) 
Видим.   Явления Облачность Т
(°С)
Тd
(°С)
f(%) Тe
(°С)
Pmin
(гПа)
dP
(гПа)
Po
(мм)
O2
(г/м3)
Тmin Tmax R s Состояние
почвы
15 19.08.17 160 (Ю) 10 км    ясно 
+31.8 +7.2 22 +32  1016.7  -0.6  744  267           
18 19.08.17 тихо ()   10 км    3/0 верхняя 
[Ci fib]
+23.8 +17.2 67 +37  1017.3  744  272    +33.2       
21 19.08.17 тихо ()   10 км    ясно 
+18.6 +14.1 75 +26  1018.2  0.4  744  278           
00 20.08.17 150 (ЮВ) 10 км    ясно 
+17.1 +14.5 85 +26  1017.7  -0.6  744  279           
03 20.08.17 тихо ()   10 км    5/0 средняя 
[Ac trans]
+18 +12.7 71 +23  1017.5  -0.1  744  279           
06 20.08.17 160 (Ю) 10 км    9/0 средняя 
[Ac trans]
+21.4 +10 48 +23  1017.7  0.4  744  276  +16.1         
09 20.08.17 140 (ЮВ) 10 км    ясно 
+31 +13.2 34 +37  1016.2  -0.6  744  267           
12 20.08.17 170 (Ю) 10 км    3/3 1000 м 
[Cu med, cong]
+32.2 +7.4 21 +32  1015.1  -1  743  267           
15 20.08.17 150 (ЮВ) 10 км    ясно 
+31.4 +7.7 23 +31  1014  -1.2  742  267           
18 20.08.17 тихо ()   10 км    8/0 средняя 
[Ac trans]
+24.4 +13.5 51 +31  1014.2  -0.3  742  272    +32.6       
21 20.08.17 150 (ЮВ) 10 км    8/0 средняя 
[Ac trans]
+26 +8.8 34 +26  1013.7  -0.4  742  271           
00 21.08.17 150 (ЮВ) 10 км    10/10 1000 м 
[Sc]
+24.2 +7.9 35 +24  1012.8  -1  741  273           
03 21.08.17 тихо ()   10 км    10/0 средняя 
[Ac und]
+19.8 +11.7 60 +24  1012.9  -0.3  741  276           
06 21.08.17 310 (СЗ) 10 км    9/6 330 м средняя 
[St|Ac trans]
+20.3 +17.7 85 +34  1013.3  0.5  741  274  +18.8         
09 21.08.17 320 (СЗ) 10 км    10/6 500 м средняя 
[Sc|Ac und]
+20.9 +17 78 +34  1013.3  0.1  741  274           
12 21.08.17 360 (С) 10 км    8/3 600 м средняя 
[Sc|Ac trans]
+24.8 +16.2 59 +36  1012.1  -0.9  740  270           
15 21.08.17 320 (СЗ) 10 км    9/6 720 м средняя 
[Sc|Ac trans]
+19.3 +14.3 73 +29  1013  0.4  741  276           
18 21.08.17 320 (СЗ) 4000 м  гроза, ливневой дождь  10/8 570 м кучево-дожд., средняя 
[Cb cap|Ac und]
+15.4 +13.3 87 +23  1014.4  741  280    +25.2     
21 21.08.17 340 (С) 10 км  гроза без осадков{ливн. осадки}  9/9 600 м кучево-дожд. 
[Cb cap]
+14.4 +12.8 90 +21  1014.2  -0.3  741  281           
00 22.08.17 330 (СЗ) 4000 м  слаб. ливневой дождь{гроза}  10/10 500 м кучево-дожд. 
[Cb cap]
+13.6 +12.9 96 +21  1014.8  0.5  742  282         
03 22.08.17 340 (С) 4000 м  слаб. ливневой дождь  10/10 330 м кучево-дожд. 
[Cb cap]
+13 +12.3 96 +18  1012.5  -2.3  740  282           
09 22.08.17 340 (С) 10 км  слаб. дождь  10/8 600 м средняя 
[Sc|Ac und]
+14.5 +12.5 88 +21  1013  -0.4  740  281           
12 22.08.17 350 (С) 10 км  в посл. час ливневой дождь  10/4 600 м кучево-дожд., средняя 
[Cb cap|As trans]
+16.9 +11.4 70 +21  1012.1  -0.7  740  279      0.4     
15 22.08.17 030 (СВ) 10 км    9/4 600 м кучево-дожд., средняя, верхняя 
[Cb cap|Ac trans|Cc]
+18.4 +12.3 68 +25  1011.2  -0.7  739  277           
18 22.08.17 тихо ()   10 км    8/3 600 м кучево-дожд., средняя, верхняя 
[Cb cap|Ac trans|Ci sp]
+14.4 +12 85 +19  1011.2  -0.4  739  281    +18.8  0.4     
Время (UTC), дата Ветер
(°,м/с) 
Видим.   Явления Облачность Т
(°С)
Тd
(°С)
f(%) Тe
(°С)
Pmin
(гПа)
dP
(гПа)
Po
(мм)
O2
(г/м3)
Тmin Tmax R s Состояние
почвы

Для получения пояснительной информации подведите курсор к названию столбца.

ПОГОДА в Житомире - архив

Всё, что Вы хотите узнать о погоде в Житомире - удобно и подробно!

Выберите нужную дату (начиная с 1 января 2015* года) и нажмите кнопку "Найти".
Будут отображены архивные сводки погоды по пункту Житомир, начиная с указанной даты.


Отображать данные в формате CSV (для использования в таблицах Excel)


Внимание! Наш архив погоды предназначен исключительно для личного некоммерческого использования в познавательных целях. Если Вам необходимы официальные справки о состоянии погоды (для производственных, юридических, коммерческих и т.п. целей), обращайтесь в органы Росгидромета.

*Примечание: данная дата относится к архиву по метеостанциям СССР (Россия, СНГ, Балтия).
Архив по метеостанциям Зарубежной Европы и Азии (кроме Китая) хранится 10 дней, по другим регионам земного шара (Китай, Африка, Америка, Австралия, Океания) - 1 день.

Житомир - район местоположения метеостанции


Название, широта, долгота, высота метеостанции:
Житомир 50.2°ш. 28.7°д. 224 м над ур. моря [Украина]

Дополнительная информация

В oтличие oт бoльшинства пoгoдных сайтoв мы публикуем пoдрoбную метеoинфoрмацию в детальнoм прoфессиoнальнoм фoрмате.

Характеристики температуры и влажнoсти вoздуха измеряются на высoте 2 м в тени вдали oт зданий и деревьев.
Скoрoсть ветра измеряется на высoте 10 м (на урoвне рoста челoвека скoрoсть ветра ниже в 1.5-2 раза). Если метеoстанция нахoдится в гoрoде или в лесу, тo скoрoсть ветра занижена на 2-4 м/с пo сравнению с oткрытым местoм. Скoрoсть ветра над акватoриями крупных рек и oзёр, а также на вершинах хoлмoв на 2-5 м/с выше, чем в oбычных услoвиях.
Атмoсфернoе давление в разных тoчках местнoсти мoжет значительнo oтличаться oт давления на метеoстанции, в зависимoсти oт услoвий рельефа (при пoдъёме на 10 м давление пoнижается примернo на 1 мм рт.ст.).